< Cyclone 198002 1980 Season Cyclone 198004 >
Cyclone 198003 (WILF)
General InformationTrack Information on Google Maps || ResourceGoogle EarthGE AnimationAtom FeedGeoJSON
Detalied Best Track (Time Zone = UTC)
Year Month Day Hour Lat. Long. Pressure (hPa) Wind (kt) Class Image Chart
1979 12 23 00 -9.7 94.9 1005 0 0 -- --
1979 12 23 06 -9.9 94.7 1004 0 0 -- --
1979 12 23 12 -10.1 94.4 1004 0 0 -- --
1979 12 23 18 -10.4 94.2 1003 0 0 -- --
1979 12 24 00 -10.6 93.9 1003 0 0 -- --
1979 12 24 06 -10.8 93.6 1002 0 0 -- --
1979 12 24 12 -10.9 93.2 1001 0 0 -- --
1979 12 24 18 -11.1 92.7 999 0 0 -- --
1979 12 25 00 -11.3 92.2 998 0 0 -- --
1979 12 25 06 -11.4 91.8 995 0 0 -- --
1979 12 25 12 -11.5 91.5 990 0 0 -- --
1979 12 25 18 -11.6 91.1 985 0 0 -- --
1979 12 26 00 -11.8 90.8 980 0 0 -- --
1979 12 26 06 -12.1 90.7 980 0 0 -- --
1979 12 26 12 -12.5 90.7 980 0 0 -- --
1979 12 26 18 -12.9 90.8 980 0 0 -- --
1979 12 27 00 -13.3 91.0 980 0 0 -- --
1979 12 27 06 -13.7 91.4 980 0 0 -- --
1979 12 27 12 -14.1 91.8 980 0 0 -- --
1979 12 27 18 -14.5 92.2 979 0 0 -- --
1979 12 28 00 -15.0 92.5 976 0 0 -- --
1979 12 28 06 -15.4 92.7 973 0 0 -- --
1979 12 28 12 -15.9 92.7 973 0 0 -- --
1979 12 28 18 -16.4 92.4 975 0 0 -- --
1979 12 29 00 -16.4 91.8 988 0 0 -- --
1979 12 29 06 -16.3 91.2 989 0 0 -- --
1979 12 29 12 -16.2 90.5 989 0 0 -- --
1979 12 29 18 -16.1 89.9 988 0 0 -- --
1979 12 30 00 -16.1 89.2 988 0 0 -- --
1979 12 30 06 -16.0 88.5 988 0 0 -- --
1979 12 30 12 -15.9 87.7 988 0 0 -- --
1979 12 30 18 -15.9 87.0 988 0 0 -- --
1979 12 31 00 -15.9 86.2 988 0 0 -- --
1979 12 31 06 -15.9 85.2 990 0 0 -- --
1979 12 31 12 -15.9 84.0 991 0 0 -- --
1979 12 31 18 -15.8 82.6 992 0 0 -- --
1980 1 1 00 -15.9 81.2 993 0 0 -- --
< Cyclone 198002 1980 Season Cyclone 198004 >

Help